Location: B�rgermoos
(47.6500°N, 9.0667°E)
Time: 02:19:50
(UTC+00:00)

Courier 1B - Pass Details

Date: 06 August 2021
Orbit: 963 x 1209 km, 28.3° (Epoch: 19 September)

Event Time Altitude Azimuth Distance (km) Brightness Sun altitude
Rises 19:52:45 0° 246° (WSW) 4,106 11.2 -9.7°
Reaches altitude 10° 19:57:21 10° 223° (SW) 3,138 10.2 -10.3°
Maximum altitude 20:00:55 14° 195° (SSW) 2,845 9.7 -10.8°
Drops below altitude 10° 20:04:27 10° 167° (SSE) 3,103 9.7 -11.2°
Enters shadow 20:05:22 - 162° (SSE) 3,247 9.7 -11.3°
